Location: Recife
(8.0585°S, 34.8848°W)
Time: 10:16:56
(UTC-03:00)

SR - Pass Details

Date: 18 April 2026
Orbit: 568 x 852 km, 66.7° (Epoch: 12 May)

Event Time Altitude Azimuth Distance (km) Brightness Sun altitude
Rises 00:13:29 0° 328° (NNW) 3,398 - -76.3°
Reaches altitude 10° 00:16:03 10° 323° (NW) 2,459 - -75.7°
Maximum altitude 00:21:31 48° 250° (WSW) 1,075 - -74.3°
Drops below altitude 10° 00:26:48 10° 176° (S) 2,366 - -73.1°
Sets 00:29:15 0° 170° (S) 3,259 - -72.5°
